Year,Month,Day,Hour,Minute,Value (Times are PST for temperature in C)
2016,12,08,02,00,-4.70
2016,12,08,02,01,-4.70
2016,12,08,02,02,-4.70
2016,12,08,02,03,-4.60
2016,12,08,02,04,-4.60
2016,12,08,02,05,-4.60
2016,12,08,02,06,-4.60
2016,12,08,02,07,-4.50
2016,12,08,02,08,-4.50
2016,12,08,02,09,-4.50
2016,12,08,02,10,-4.50
2016,12,08,02,11,-4.50
2016,12,08,02,12,-4.50
2016,12,08,02,13,-4.40
2016,12,08,02,14,-4.40
2016,12,08,02,15,-4.40
2016,12,08,02,16,-4.40
2016,12,08,02,17,-4.40
2016,12,08,02,18,-4.40
2016,12,08,02,19,-4.40
2016,12,08,02,20,-4.30
2016,12,08,02,21,-4.30
2016,12,08,02,22,-4.30
2016,12,08,02,23,-4.30
2016,12,08,02,24,-4.30
2016,12,08,02,25,-4.20
2016,12,08,02,26,-4.20
2016,12,08,02,27,-4.20
2016,12,08,02,28,-4.20
2016,12,08,02,29,-4.20
2016,12,08,02,30,-4.10
2016,12,08,02,31,-4.10
2016,12,08,02,32,-4.10
2016,12,08,02,33,-4.10
2016,12,08,02,34,-4.10
2016,12,08,02,35,-4.10
2016,12,08,02,36,-4.10
2016,12,08,02,37,-4.10
2016,12,08,02,38,-4.10
2016,12,08,02,39,-4.00
2016,12,08,02,40,-4.00
2016,12,08,02,41,-4.00
2016,12,08,02,42,-4.00
2016,12,08,02,43,-4.00
2016,12,08,02,44,-3.90
2016,12,08,02,45,-3.90
2016,12,08,02,46,-3.90
2016,12,08,02,47,-3.90
2016,12,08,02,48,-3.90
2016,12,08,02,49,-3.90
2016,12,08,02,50,-3.90
2016,12,08,02,51,-3.90
2016,12,08,02,52,-3.90
2016,12,08,02,53,-3.90
2016,12,08,02,54,-3.80
2016,12,08,02,55,-3.80
2016,12,08,02,56,-3.80
2016,12,08,02,57,-3.80
2016,12,08,02,58,-3.80
2016,12,08,02,59,-3.80
2016,12,08,03,00,-3.80
2016,12,08,03,01,-3.70
2016,12,08,03,02,-3.70
2016,12,08,03,03,-3.70
2016,12,08,03,04,-3.70
2016,12,08,03,05,-3.70
2016,12,08,03,06,-3.70
2016,12,08,03,07,-3.70
2016,12,08,03,08,-3.70
2016,12,08,03,09,-3.70
2016,12,08,03,10,-3.70
2016,12,08,03,11,-3.70
2016,12,08,03,12,-3.70
2016,12,08,03,13,-3.70
2016,12,08,03,14,-3.70
2016,12,08,03,15,-3.70
2016,12,08,03,16,-3.70
2016,12,08,03,17,-3.70
2016,12,08,03,18,-3.70
2016,12,08,03,19,-3.70
2016,12,08,03,20,-3.60
2016,12,08,03,21,-3.60
2016,12,08,03,22,-3.60
2016,12,08,03,23,-3.60
2016,12,08,03,24,-3.60
2016,12,08,03,25,-3.60
2016,12,08,03,26,-3.60
2016,12,08,03,27,-3.60
2016,12,08,03,28,-3.60
2016,12,08,03,29,-3.60
2016,12,08,03,30,-3.60
2016,12,08,03,31,-3.60
2016,12,08,03,32,-3.60
2016,12,08,03,33,-3.50
2016,12,08,03,34,-3.50
2016,12,08,03,35,-3.50
2016,12,08,03,36,-3.50
2016,12,08,03,37,-3.50
2016,12,08,03,38,-3.50
2016,12,08,03,39,-3.50
2016,12,08,03,40,-3.50
2016,12,08,03,41,-3.50
2016,12,08,03,42,-3.50
2016,12,08,03,43,-3.50
2016,12,08,03,44,-3.50
2016,12,08,03,45,-3.50
2016,12,08,03,46,-3.50
2016,12,08,03,47,-3.50
2016,12,08,03,48,-3.40
2016,12,08,03,49,-3.40
2016,12,08,03,50,-3.40
2016,12,08,03,51,-3.40
2016,12,08,03,52,-3.40
2016,12,08,03,53,-3.40
2016,12,08,03,54,-3.40
2016,12,08,03,55,-3.40
2016,12,08,03,56,-3.40
2016,12,08,03,57,-3.40
2016,12,08,03,58,-3.40
2016,12,08,03,59,-3.40
2016,12,08,04,00,-3.40
2016,12,08,04,01,-3.40
2016,12,08,04,02,-3.40
2016,12,08,04,03,-3.40
2016,12,08,04,04,-3.40
2016,12,08,04,05,-3.40
2016,12,08,04,06,-3.40
2016,12,08,04,07,-3.40
2016,12,08,04,08,-3.30
2016,12,08,04,09,-3.30
2016,12,08,04,10,-3.30
2016,12,08,04,11,-3.30
2016,12,08,04,12,-3.30
2016,12,08,04,13,-3.30
2016,12,08,04,14,-3.30
2016,12,08,04,15,-3.30
2016,12,08,04,16,-3.30
2016,12,08,04,17,-3.30
2016,12,08,04,18,-3.20
2016,12,08,04,19,-3.20
2016,12,08,04,20,-3.20
2016,12,08,04,21,-3.20
2016,12,08,04,22,-3.20
2016,12,08,04,23,-3.20
2016,12,08,04,24,-3.20
2016,12,08,04,25,-3.20
2016,12,08,04,26,-3.20
2016,12,08,04,27,-3.20
2016,12,08,04,28,-3.20
2016,12,08,04,29,-3.20
2016,12,08,04,30,-3.20
2016,12,08,04,31,-3.10
2016,12,08,04,32,-3.10
2016,12,08,04,33,-3.10
2016,12,08,04,34,-3.10
2016,12,08,04,35,-3.10
2016,12,08,04,36,-3.10
2016,12,08,04,37,-3.10
2016,12,08,04,38,-3.10
2016,12,08,04,39,-3.10
2016,12,08,04,40,-3.10
2016,12,08,04,41,-3.10
2016,12,08,04,42,-3.10
2016,12,08,04,43,-3.10
2016,12,08,04,44,-3.10
2016,12,08,04,45,-3.10
2016,12,08,04,46,-3.10
2016,12,08,04,47,-3.10
2016,12,08,04,48,-3.10
2016,12,08,04,49,-3.10
2016,12,08,04,50,-3.10
2016,12,08,04,51,-3.10
2016,12,08,04,52,-3.10
2016,12,08,04,53,-3.10
2016,12,08,04,54,-3.10
2016,12,08,04,55,-3.10
2016,12,08,04,56,-3.10
2016,12,08,04,57,-3.10
2016,12,08,04,58,-3.10
2016,12,08,04,59,-3.10
2016,12,08,05,00,-3.10
2016,12,08,05,01,-3.00
2016,12,08,05,02,-3.00
2016,12,08,05,03,-3.10
2016,12,08,05,04,-3.10
2016,12,08,05,05,-3.10
2016,12,08,05,06,-3.00
2016,12,08,05,07,-3.00
2016,12,08,05,08,-3.10
2016,12,08,05,09,-3.00
2016,12,08,05,10,-3.00
2016,12,08,05,11,-3.00
2016,12,08,05,12,-3.00
2016,12,08,05,13,-3.00
2016,12,08,05,14,-3.00
2016,12,08,05,15,-3.00
2016,12,08,05,16,-3.00
2016,12,08,05,17,-3.00
2016,12,08,05,18,-3.00
2016,12,08,05,19,-3.00
2016,12,08,05,20,-3.00
2016,12,08,05,21,-3.00
2016,12,08,05,22,-3.00
2016,12,08,05,23,-3.00
2016,12,08,05,24,-3.00
2016,12,08,05,25,-3.00
2016,12,08,05,26,-3.00
2016,12,08,05,27,-3.00
2016,12,08,05,28,-3.00
2016,12,08,05,29,-3.00
2016,12,08,05,30,-2.90
2016,12,08,05,31,-2.90
2016,12,08,05,32,-2.90
2016,12,08,05,33,-2.90
2016,12,08,05,34,-2.90
2016,12,08,05,35,-2.90
2016,12,08,05,36,-2.90
2016,12,08,05,37,-2.90
2016,12,08,05,38,-2.90
2016,12,08,05,39,-2.90
2016,12,08,05,40,-2.90
2016,12,08,05,41,-2.90
2016,12,08,05,42,-2.90
2016,12,08,05,43,-2.90
2016,12,08,05,44,-2.90
2016,12,08,05,45,-2.90
2016,12,08,05,46,-2.90
2016,12,08,05,47,-2.90
2016,12,08,05,48,-2.90
2016,12,08,05,49,-2.90
2016,12,08,05,50,-2.90
2016,12,08,05,51,-2.90
2016,12,08,05,52,-2.90
2016,12,08,05,53,-2.90
2016,12,08,05,54,-2.90
2016,12,08,05,55,-2.90
2016,12,08,05,56,-2.90
2016,12,08,05,57,-2.90
2016,12,08,05,58,-2.90
2016,12,08,05,59,-2.90
2016,12,08,06,00,-2.90
2016,12,08,06,01,-2.80
2016,12,08,06,02,-2.80
2016,12,08,06,03,-2.80
2016,12,08,06,04,-2.80
2016,12,08,06,05,-2.80
2016,12,08,06,06,-2.80
2016,12,08,06,07,-2.80
2016,12,08,06,08,-2.80
2016,12,08,06,09,-2.80
2016,12,08,06,10,-2.80
2016,12,08,06,11,-2.80
2016,12,08,06,12,-2.80
2016,12,08,06,13,-2.80
2016,12,08,06,14,-2.80
2016,12,08,06,15,-2.80
2016,12,08,06,16,-2.80
2016,12,08,06,17,-2.80
2016,12,08,06,18,-2.80
2016,12,08,06,19,-2.80
2016,12,08,06,20,-2.80
2016,12,08,06,21,-2.80
2016,12,08,06,22,-2.80
2016,12,08,06,23,-2.80
2016,12,08,06,24,-2.80
2016,12,08,06,25,-2.80
2016,12,08,06,26,-2.80
2016,12,08,06,27,-2.80
2016,12,08,06,28,-2.80
2016,12,08,06,29,-2.80
2016,12,08,06,30,-2.80
2016,12,08,06,31,-2.80
2016,12,08,06,32,-2.80
2016,12,08,06,33,-2.80
2016,12,08,06,34,-2.80
2016,12,08,06,35,-2.80
2016,12,08,06,36,-2.80
2016,12,08,06,37,-2.80
2016,12,08,06,38,-2.70
2016,12,08,06,39,-2.70
2016,12,08,06,40,-2.70
2016,12,08,06,41,-2.70
2016,12,08,06,42,-2.70
2016,12,08,06,43,-2.70
2016,12,08,06,44,-2.70
2016,12,08,06,45,-2.70
2016,12,08,06,46,-2.70
2016,12,08,06,47,-2.70
2016,12,08,06,48,-2.70
2016,12,08,06,49,-2.70
2016,12,08,06,50,-2.70
2016,12,08,06,51,-2.70
2016,12,08,06,52,-2.70
2016,12,08,06,53,-2.70
2016,12,08,06,54,-2.70
2016,12,08,06,55,-2.70
2016,12,08,06,56,-2.70
2016,12,08,06,57,-2.70
2016,12,08,06,58,-2.70
2016,12,08,06,59,-2.70
2016,12,08,07,00,-2.70
2016,12,08,07,01,-2.70
2016,12,08,07,02,-2.70
2016,12,08,07,03,-2.70
2016,12,08,07,04,-2.70
2016,12,08,07,05,-2.70
2016,12,08,07,06,-2.70
2016,12,08,07,07,-2.70
2016,12,08,07,08,-2.70
2016,12,08,07,09,-2.70
2016,12,08,07,10,-2.70
2016,12,08,07,11,-2.70
2016,12,08,07,12,-2.70
2016,12,08,07,13,-2.70
2016,12,08,07,14,-2.70
2016,12,08,07,15,-2.60
2016,12,08,07,16,-2.60
2016,12,08,07,17,-2.70
2016,12,08,07,18,-2.70
2016,12,08,07,19,-2.60
2016,12,08,07,20,-2.60
2016,12,08,07,21,-2.60
2016,12,08,07,22,-2.60
2016,12,08,07,23,-2.60
2016,12,08,07,24,-2.60
2016,12,08,07,25,-2.60
2016,12,08,07,26,-2.60
2016,12,08,07,27,-2.70
2016,12,08,07,28,-2.60
2016,12,08,07,29,-2.60
2016,12,08,07,30,-2.60
2016,12,08,07,31,-2.70
2016,12,08,07,32,-2.70
2016,12,08,07,33,-2.70
2016,12,08,07,34,-2.70
2016,12,08,07,35,-2.70
2016,12,08,07,36,-2.70
2016,12,08,07,37,-2.70
2016,12,08,07,38,-2.70
2016,12,08,07,39,-2.70
2016,12,08,07,40,-2.70
2016,12,08,07,41,-2.70
2016,12,08,07,42,-2.70
2016,12,08,07,43,-2.70
2016,12,08,07,44,-2.70
2016,12,08,07,45,-2.70
2016,12,08,07,46,-2.70
2016,12,08,07,47,-2.70
2016,12,08,07,48,-2.70
2016,12,08,07,49,-2.70
2016,12,08,07,50,-2.70
2016,12,08,07,51,-2.70
2016,12,08,07,52,-2.70
2016,12,08,07,53,-2.70
2016,12,08,07,54,-2.70
2016,12,08,07,55,-2.70
2016,12,08,07,56,-2.70
2016,12,08,07,57,-2.70
2016,12,08,07,58,-2.70
2016,12,08,07,59,-2.70
2016,12,08,08,00,-2.70
2016,12,08,08,01,-2.70
2016,12,08,08,02,-2.70
2016,12,08,08,03,-2.70
2016,12,08,08,04,-2.70
2016,12,08,08,05,-2.60
2016,12,08,08,06,-2.60
2016,12,08,08,07,-2.60
2016,12,08,08,08,-2.60
2016,12,08,08,09,-2.60
2016,12,08,08,10,-2.60
2016,12,08,08,11,-2.60
2016,12,08,08,12,-2.60
2016,12,08,08,13,-2.60
2016,12,08,08,14,-2.60
2016,12,08,08,15,-2.60
2016,12,08,08,16,-2.60
2016,12,08,08,17,-2.60
2016,12,08,08,18,-2.60
2016,12,08,08,19,-2.60
2016,12,08,08,20,-2.60
2016,12,08,08,21,-2.60
2016,12,08,08,22,-2.60
2016,12,08,08,23,-2.60
2016,12,08,08,24,-2.60
2016,12,08,08,25,-2.60
2016,12,08,08,26,-2.60
2016,12,08,08,27,-2.60
2016,12,08,08,28,-2.60
2016,12,08,08,29,-2.50
2016,12,08,08,30,-2.60
2016,12,08,08,31,-2.60
2016,12,08,08,32,-2.50
2016,12,08,08,33,-2.50
2016,12,08,08,34,-2.50
2016,12,08,08,35,-2.50
2016,12,08,08,36,-2.50
2016,12,08,08,37,-2.50
2016,12,08,08,38,-2.50
2016,12,08,08,39,-2.50
2016,12,08,08,40,-2.50
2016,12,08,08,41,-2.50
2016,12,08,08,42,-2.50
2016,12,08,08,43,-2.50
2016,12,08,08,44,-2.50
2016,12,08,08,45,-2.50
2016,12,08,08,46,-2.40
2016,12,08,08,47,-2.50
2016,12,08,08,48,-2.50
2016,12,08,08,49,-2.40
2016,12,08,08,50,-2.40
2016,12,08,08,51,-2.40
2016,12,08,08,52,-2.40
2016,12,08,08,53,-2.40
2016,12,08,08,54,-2.40
2016,12,08,08,55,-2.40
2016,12,08,08,56,-2.40
2016,12,08,08,57,-2.40
2016,12,08,08,58,-2.40
2016,12,08,08,59,-2.30
2016,12,08,09,00,-2.30
2016,12,08,09,01,-2.30
2016,12,08,09,02,-2.30
2016,12,08,09,03,-2.30
2016,12,08,09,04,-2.30
2016,12,08,09,05,-2.30
2016,12,08,09,06,-2.30
2016,12,08,09,07,-2.30
2016,12,08,09,08,-2.30
2016,12,08,09,09,-2.30
2016,12,08,09,10,-2.30
2016,12,08,09,11,-2.30
2016,12,08,09,12,-2.30
2016,12,08,09,13,-2.30
2016,12,08,09,14,-2.30
2016,12,08,09,15,-2.30
2016,12,08,09,16,-2.30
2016,12,08,09,17,-2.30
2016,12,08,09,18,-2.30
2016,12,08,09,19,-2.30
2016,12,08,09,20,-2.20
2016,12,08,09,21,-2.30
2016,12,08,09,22,-2.20
2016,12,08,09,23,-2.20
2016,12,08,09,24,-2.20
2016,12,08,09,25,-2.20
2016,12,08,09,26,-2.20
2016,12,08,09,27,-2.20
2016,12,08,09,28,-2.20
2016,12,08,09,29,-2.20
2016,12,08,09,30,-2.20
2016,12,08,09,31,-2.20
2016,12,08,09,32,-2.20
2016,12,08,09,33,-2.20
2016,12,08,09,34,-2.20
2016,12,08,09,35,-2.10
2016,12,08,09,36,-2.10
2016,12,08,09,37,-2.10
2016,12,08,09,38,-2.10
2016,12,08,09,39,-2.10
2016,12,08,09,40,-2.10
2016,12,08,09,41,-2.10
2016,12,08,09,42,-2.10
2016,12,08,09,43,-2.10
2016,12,08,09,44,-2.00
2016,12,08,09,45,-2.00
2016,12,08,09,46,-2.00
2016,12,08,09,47,-1.90
2016,12,08,09,48,-1.90
2016,12,08,09,49,-1.90
2016,12,08,09,50,-1.90
2016,12,08,09,51,-1.90
2016,12,08,09,52,-1.90
2016,12,08,09,53,-1.80
2016,12,08,09,54,-1.80
2016,12,08,09,55,-1.80
2016,12,08,09,56,-1.80
2016,12,08,09,57,-1.80
2016,12,08,09,58,-1.80
2016,12,08,09,59,-1.80
2016,12,08,10,00,-1.80
2016,12,08,10,01,-1.80
2016,12,08,10,02,-1.80
2016,12,08,10,03,-1.80
2016,12,08,10,04,-1.80
2016,12,08,10,05,-1.70
2016,12,08,10,06,-1.70
2016,12,08,10,07,-1.70
2016,12,08,10,08,-1.70
2016,12,08,10,09,-1.70
2016,12,08,10,10,-1.70
2016,12,08,10,11,-1.70
2016,12,08,10,12,-1.70
2016,12,08,10,13,-1.70
2016,12,08,10,14,-1.70
2016,12,08,10,15,-1.70
